| time (UTC) | temp C | wind direction | speed KPH | gust KPH | rain 1hr cm | rain 24hr cm | rain mn cm | humidity % | barometer mb |
| 20260506103019 | 8 | 23 | 1.6 | 8.0 | 0.03 | 1.65 | 0.99 | 98 | 1005.7 |
| 20260506102019 | 8 | 338 | 3.2 | 9.7 | 0.03 | 1.65 | 0.99 | 98 | 1005.7 |
| 20260506101019 | 8 | 0 | 1.6 | 8.0 | 0.05 | 1.65 | 0.99 | 98 | 1005.6 |
| 20260506100019 | 8 | 45 | 4.8 | 9.7 | 0.03 | 1.63 | 0.99 | 98 | 1005.6 |
| 20260506095019 | 8 | 45 | 3.2 | 8.0 | 0.03 | 1.63 | 0.99 | 98 | 1005.5 |
| 20260506094019 | 8 | 45 | 3.2 | 6.4 | 0.05 | 1.65 | 0.99 | 98 | 1005.5 |
| 20260506093019 | 8 | 45 | 1.6 | 4.8 | 0.05 | 1.65 | 0.99 | 98 | 1005.3 |
| 20260506092019 | 8 | 45 | 1.6 | 6.4 | 0.05 | 1.65 | 0.99 | 98 | 1005.3 |
| 20260506091019 | 8 | 68 | 1.6 | 6.4 | 0.05 | 1.63 | 0.97 | 98 | 1005.3 |
| 20260506090019 | 8 | 45 | 1.6 | 6.4 | 0.08 | 1.63 | 0.97 | 98 | 1005.1 |
| 20260506085019 | 8 | 68 | 1.6 | 6.4 | 0.10 | 1.63 | 0.97 | 98 | 1005.1 |
| 20260506084019 | 8 | 23 | 1.6 | 6.4 | 0.10 | 1.60 | 0.94 | 98 | 1004.9 |
| 20260506083019 | 8 | 90 | 1.6 | 4.8 | 0.08 | 1.57 | 0.91 | 98 | 1004.8 |
| 20260506082019 | 8 | 90 | 1.6 | 8.0 | 0.08 | 1.57 | 0.91 | 98 | 1004.8 |
| 20260506081019 | 8 | 68 | 3.2 | 8.0 | 0.05 | 1.55 | 0.89 | 98 | 1004.7 |
| 20260506073019 | 8 | 23 | 3.2 | 9.7 | 0.03 | 1.50 | 0.84 | 98 | 1004.7 |
| 20260506072019 | 8 | 45 | 3.2 | 8.0 | 0.05 | 1.50 | 0.84 | 98 | 1004.7 |
| 20260506071019 | 8 | 45 | 3.2 | 6.4 | 0.05 | 1.50 | 0.84 | 98 | 1004.6 |
| 20260506062019 | 8 | 68 | 3.2 | 6.4 | 0.05 | 1.45 | 0.79 | 98 | 1004.4 |
| 20260506061019 | 8 | 23 | 1.6 | 8.0 | 0.05 | 1.45 | 0.79 | 98 | 1004.4 |
| 20260506051019 | 8 | 45 | 3.2 | 8.0 | 0.05 | 1.42 | 0.76 | 98 | 1004.3 |
| 20260506045019 | 8 | 23 | 3.2 | 6.4 | 0.05 | 1.40 | 0.74 | 98 | 1004.3 |
| 20260506044018 | 8 | 68 | 3.2 | 8.0 | 0.05 | 1.37 | 0.71 | 98 | 1004.3 |
| 20260506043019 | 8 | 23 | 3.2 | 8.0 | 0.05 | 1.37 | 0.71 | 98 | 1004.3 |
| 20260506042019 | 8 | 45 | 3.2 | 8.0 | 0.05 | 1.37 | 0.71 | 98 | 1004.3 |
| 20260506041018 | 8 | 45 | 3.2 | 4.8 | 0.05 | 1.37 | 0.71 | 98 | 1004.4 |
| 20260506040018 | 8 | 23 | 3.2 | 11.3 | 0.05 | 1.35 | 0.69 | 98 | 1004.3 |
| 20260506035018 | 8 | 23 | 3.2 | 9.7 | 0.05 | 1.35 | 0.69 | 98 | 1004.4 |
| 20260506034019 | 8 | 45 | 1.6 | 6.4 | 0.08 | 1.37 | 0.69 | 98 | 1004.3 |
| 20260506033018 | 8 | 68 | 4.8 | 9.7 | 0.08 | 1.35 | 0.66 | 98 | 1004.4 |
| 20260506032018 | 9 | 45 | 3.2 | 8.0 | 0.08 | 1.35 | 0.66 | 98 | 1004.4 |
| 20260506031018 | 9 | 68 | 3.2 | 8.0 | 0.08 | 1.32 | 0.64 | 98 | 1004.5 |
| 20260506030019 | 9 | 68 | 3.2 | 9.7 | 0.05 | 1.30 | 0.61 | 98 | 1004.7 |
| 20260506025018 | 9 | 45 | 4.8 | 9.7 | 0.08 | 1.30 | 0.61 | 98 | 1004.8 |
| 20260506024018 | 9 | 68 | 3.2 | 8.0 | 0.08 | 1.27 | 0.61 | 98 | 1004.8 |
| 20260506023018 | 9 | 45 | 4.8 | 11.3 | 0.05 | 1.27 | 0.58 | 98 | 1004.9 |
| 20260506022018 | 9 | 23 | 3.2 | 8.0 | 0.08 | 1.27 | 0.58 | 98 | 1004.9 |
| 20260506021018 | 9 | 45 | 4.8 | 16.1 | 0.05 | 1.24 | 0.56 | 98 | 1004.9 |
| 20260506020018 | 9 | 68 | 4.8 | 14.5 | 0.08 | 1.24 | 0.56 | 98 | 1004.9 |
| 20260506015018 | 9 | 23 | 4.8 | 9.7 | 0.08 | 1.22 | 0.53 | 98 | 1004.8 |
| 20260506014018 | 9 | 45 | 4.8 | 9.7 | 0.08 | 1.19 | 0.51 | 98 | 1004.9 |
| 20260506013018 | 9 | 45 | 4.8 | 9.7 | 0.10 | 1.19 | 0.51 | 98 | 1005.0 |
| 20260506012018 | 9 | 0 | 4.8 | 9.7 | 0.10 | 1.17 | 0.51 | 98 | 1005.1 |
| 20260506011018 | 9 | 45 | 3.2 | 8.0 | 0.13 | 1.17 | 0.51 | 98 | 1005.1 |
| 20260506010018 | 9 | 45 | 1.6 | 6.4 | 0.13 | 1.17 | 0.48 | 98 | 1005.1 |
| 20260506005018 | 9 | 23 | 3.2 | 9.7 | 0.15 | 1.14 | 0.46 | 98 | 1005.2 |
| 20260506004020 | 9 | 68 | 3.2 | 9.7 | 0.15 | 1.12 | 0.43 | 98 | 1005.3 |
| 20260506003018 | 9 | 0 | 3.2 | 9.7 | 0.15 | 1.09 | 0.43 | 98 | 1005.3 |
| 20260506002018 | 9 | 23 | 1.6 | 6.4 | 0.15 | 1.09 | 0.41 | 98 | 1005.4 |
| 20260506001018 | 9 | 0 | 3.2 | 9.7 | 0.18 | 1.07 | 0.38 | 97 | 1005.6 |
| 20260506000020 | 9 | 45 | 3.2 | 8.0 | 0.20 | 1.04 | 0.36 | 97 | 1005.7 |
| 20260505235018 | 9 | 0 | 3.2 | 9.7 | 0.18 | 0.99 | 0.33 | 98 | 1005.9 |
| 20260505234018 | 9 | 45 | 3.2 | 6.4 | 0.18 | 0.99 | 0.30 | 97 | 1005.9 |
| 20260505233020 | 9 | 23 | 3.2 | 6.4 | 0.20 | 0.97 | 0.28 | 97 | 1006.1 |
| 20260505232020 | 9 | 23 | 4.8 | 12.9 | 0.18 | 0.91 | 0.23 | 97 | 1006.1 |
| 20260505231018 | 9 | 68 | 3.2 | 6.4 | 0.18 | 0.89 | 0.20 | 97 | 1006.1 |
| 20260505230018 | 9 | 45 | 3.2 | 6.4 | 0.15 | 0.84 | 0.15 | 97 | 1006.2 |
| 20260505225020 | 9 | 45 | 3.2 | 11.3 | 0.15 | 0.81 | 0.15 | 97 | 1006.2 |
| 20260505224018 | 9 | 45 | 4.8 | 11.3 | 0.15 | 0.79 | 0.13 | 97 | 1006.2 |
| 20260505223020 | 9 | 23 | 4.8 | 12.9 | 0.15 | 0.76 | 0.08 | 97 | 1006.4 |
| 20260505222018 | 9 | 23 | 4.8 | 11.3 | 0.15 | 0.74 | 0.05 | 97 | 1006.5 |
| 20260505221020 | 9 | 45 | 3.2 | 8.0 | 0.15 | 0.71 | 0.03 | 97 | 1006.4 |
| 20260505220020 | 9 | 23 | 3.2 | 11.3 | 0.15 | 0.69 | 0.69 | 97 | 1006.3 |
| 20260505215019 | 9 | 68 | 3.2 | 8.0 | 0.15 | 0.66 | 0.66 | 97 | 1006.4 |
| 20260505214018 | 9 | 68 | 3.2 | 11.3 | 0.18 | 0.64 | 0.64 | 97 | 1006.6 |
| 20260505213018 | 9 | 23 | 3.2 | 8.0 | 0.15 | 0.61 | 0.61 | 97 | 1006.6 |
| 20260505212018 | 9 | 23 | 3.2 | 8.0 | 0.18 | 0.58 | 0.58 | 97 | 1006.7 |
| 20260505211018 | 9 | 45 | 4.8 | 11.3 | 0.28 | 0.56 | 0.56 | 97 | 1006.8 |
| 20260505210019 | 9 | 45 | 3.2 | 9.7 | 0.33 | 0.53 | 0.53 | 97 | 1006.8 |
| 20260505205018 | 9 | 45 | 3.2 | 12.9 | 0.30 | 0.51 | 0.51 | 97 | 1006.7 |
| 20260505204019 | 9 | 45 | 4.8 | 12.9 | 0.25 | 0.46 | 0.46 | 97 | 1006.8 |
| 20260505203018 | 9 | 23 | 4.8 | 14.5 | 0.25 | 0.43 | 0.43 | 97 | 1006.9 |
| 20260505202018 | 9 | 23 | 4.8 | 16.1 | 0.23 | 0.41 | 0.41 | 97 | 1006.8 |
| 20260505201019 | 9 | 45 | 4.8 | 14.5 | 0.15 | 0.28 | 0.28 | 97 | 1006.7 |
| 20260505200018 | 9 | 45 | 4.8 | 11.3 | 0.08 | 0.23 | 0.23 | 97 | 1006.7 |
| 20260505195018 | 9 | 45 | 4.8 | 9.7 | 0.08 | 0.20 | 0.20 | 97 | 1006.7 |
| 20260505194018 | 9 | 45 | 4.8 | 16.1 | 0.10 | 0.23 | 0.20 | 97 | 1006.7 |
| 20260505193018 | 10 | 23 | 6.4 | 12.9 | 0.08 | 0.20 | 0.18 | 97 | 1006.8 |
| 20260505192018 | 10 | 45 | 4.8 | 12.9 | 0.08 | 0.18 | 0.15 | 97 | 1006.8 |
| 20260505191018 | 10 | 23 | 6.4 | 12.9 | 0.05 | 0.15 | 0.15 | 97 | 1006.8 |
| 20260505190018 | 10 | 45 | 3.2 | 8.0 | 0.05 | 0.15 | 0.15 | 97 | 1006.7 |
| 20260505185018 | 10 | 45 | 4.8 | 11.3 | 0.05 | 0.15 | 0.13 | 97 | 1006.7 |
| 20260505184018 | 10 | 45 | 4.8 | 16.1 | 0.05 | 0.13 | 0.10 | 97 | 1006.7 |
| 20260505183020 | 10 | 45 | 4.8 | 12.9 | 0.05 | 0.13 | 0.10 | 97 | 1006.7 |
| 20260505182018 | 10 | 45 | 4.8 | 8.0 | 0.03 | 0.10 | 0.08 | 97 | 1006.6 |
| 20260505181018 | 10 | 45 | 4.8 | 8.0 | 0.03 | 0.10 | 0.08 | 97 | 1006.7 |
| 20260505180018 | 10 | 45 | 4.8 | 8.0 | 0.03 | 0.10 | 0.08 | 97 | 1006.8 |
| 20260505175020 | 10 | 23 | 4.8 | 11.3 | 0.00 | 0.08 | 0.05 | 97 | 1006.8 |
| 20260505174018 | 10 | 23 | 4.8 | 9.7 | 0.00 | 0.10 | 0.05 | 96 | 1006.8 |
| 20260505173018 | 10 | 45 | 3.2 | 9.7 | 0.00 | 0.13 | 0.05 | 96 | 1006.9 |
| 20260505172020 | 10 | 68 | 4.8 | 11.3 | 0.00 | 0.13 | 0.05 | 96 | 1006.9 |
| 20260505171020 | 10 | 45 | 4.8 | 11.3 | 0.00 | 0.13 | 0.05 | 97 | 1007.1 |
| 20260505170018 | 10 | 45 | 6.4 | 14.5 | 0.00 | 0.15 | 0.05 | 96 | 1007.1 |
| 20260505165018 | 10 | 45 | 4.8 | 11.3 | 0.00 | 0.15 | 0.05 | 96 | 1007.0 |
| 20260505164020 | 10 | 45 | 4.8 | 12.9 | 0.00 | 0.15 | 0.05 | 96 | 1007.0 |
| 20260505163020 | 10 | 0 | 3.2 | 8.0 | 0.00 | 0.20 | 0.05 | 96 | 1007.2 |
| 20260505162018 | 10 | 23 | 6.4 | 17.7 | 0.00 | 0.38 | 0.05 | 96 | 1007.1 |
| 20260505161018 | 11 | 45 | 4.8 | 16.1 | 0.00 | 0.71 | 0.05 | 96 | 1007.1 |
| 20260505153020 | 11 | 45 | 3.2 | 11.3 | 0.00 | 0.76 | 0.05 | 96 | 1007.4 |
| 20260505152020 | 11 | 45 | 3.2 | 12.9 | 0.00 | 0.79 | 0.05 | 96 | 1007.6 |
| 20260505151020 | 11 | 45 | 3.2 | 8.0 | 0.00 | 0.79 | 0.05 | 96 | 1007.8 |
| 20260505125029 | 12 | 45 | 4.8 | 9.7 | 0.00 | 0.84 | 0.05 | 94 | 1008.4 |
| 20260505124019 | 12 | 23 | 3.2 | 8.0 | 0.00 | 0.84 | 0.05 | 93 | 1008.4 |
| 20260505123020 | 13 | 0 | 3.2 | 8.0 | 0.00 | 0.84 | 0.05 | 93 | 1008.4 |
| 20260505122020 | 13 | 45 | 3.2 | 6.4 | 0.00 | 0.84 | 0.05 | 93 | 1008.5 |
| 20260505121019 | 13 | 23 | 3.2 | 11.3 | 0.00 | 0.84 | 0.05 | 92 | 1008.4 |
| 20260505120019 | 13 | 45 | 4.8 | 9.7 | 0.03 | 0.84 | 0.05 | 92 | 1008.4 |
| 20260505115019 | 13 | 23 | 4.8 | 12.9 | 0.03 | 0.84 | 0.05 | 91 | 1008.4 |
| 20260505114020 | 14 | 338 | 4.8 | 12.9 | 0.03 | 0.84 | 0.05 | 89 | 1008.5 |
| 20260505113019 | 15 | 23 | 1.6 | 6.4 | 0.03 | 0.84 | 0.05 | 88 | 1008.6 |
| 20260505112019 | 15 | 90 | 1.6 | 4.8 | 0.03 | 0.84 | 0.05 | 88 | 1008.6 |
| 20260505111019 | 15 | 90 | 1.6 | 6.4 | 0.03 | 0.84 | 0.05 | 88 | 1008.6 |